GFSNW_850_dewp_093.txt.gz
Dewpoint
-3 -3 1 1 1 1 -0 1 2 1 1 0 3 3 3 2 3 1 -1 -1 0 0 1 2 2 3 3 2 2 4 3 4 6 4 1 1 2 3 0 3 3 2 4 7
-2 -1 -1 -1 -1 -0 -0 1 1 0 1 3 3 3 2 3 3 0 -1 -0 -0 -0 1 2 1 2 1 1 2 3 2 2 2 1 -0 0 3 1 0 1 1 3 4 5
-1 -1 -2 -2 -0 0 1 -0 -1 -1 1 2 2 2 3 3 0 -1 -0 -0 -1 0 0 -0 2 2 1 0 1 1 1 1 2 3 3 2 3 2 1 1 2 3 4 4
-2 -2 -3 -3 -3 -1 2 1 -0 1 -1 0 1 1 2 2 2 0 -1 -1 -0 -0 1 0 0 -1 -0 0 0 1 1 2 0 1 -0 1 1 1 2 3 1 2 3 3
-1 -2 -1 -2 -4 -2 2 1 -0 1 1 -1 0 0 2 2 1 1 1 2 1 2 3 2 3 1 1 1 -0 -0 -0 2 2 2 -1 -1 -0 -1 1 2 2 1 1 2
-0 -1 -1 -2 -2 -3 -1 1 0 0 -2 -1 0 1 1 2 1 0 0 1 1 2 1 1 -0 -0 -0 -1 -0 0 1 1 1 3 2 0 2 -1 -1 1 1 2 3 1
-0 -0 -1 -3 -4 -4 -3 -1 -2 -1 -1 -1 1 1 0 1 1 1 1 0 1 0 -0 -0 -1 -1 -1 -1 -1 -1 0 1 1 1 0 2 -1 -3 -2 -1 0 1 1 1
-0 -0 -0 -3 -3 -3 -4 -4 -2 -1 -2 -0 0 -0 0 0 1 1 1 1 0 -0 0 0 0 0 -0 -0 -1 -1 -1 1 1 1 1 -1 -1 -2 -0 0 1 -1 -0 0
0 -0 -0 -1 -3 -3 -3 -3 -2 -1 -1 -1 -0 0 0 1 1 1 0 -1 -1 -0 1 -1 -1 -0 -1 -1 -2 -2 -1 -1 1 1 2 1 -1 -2 -2 -3 1 -2 -1 -0
-1 -0 0 -0 -1 -3 -3 -3 -3 -3 -1 -1 -0 -0 0 0 1 1 1 0 1 1 1 0 -1 -1 -2 0 -1 -1 -1 -1 -0 1 1 -0 -2 -2 -2 0 -3 -2 -2 -1
-1 -1 -1 -0 -0 -1 -2 -5 -3 -3 -2 -2 -0 -0 -0 0 0 1 1 0 1 1 2 0 -0 -1 -2 -3 -3 -3 -2 -1 -0 -1 -0 -2 -3 -2 -1 -3 -3 -2 -2 -2
-5 -1 -1 -2 -1 -1 -0 -2 -5 -2 -1 -1 -1 -1 -1 -1 -1 -1 0 0 1 1 1 0 -1 -1 -2 -3 -2 -3 -2 -3 -1 -3 -2 -4 -3 -2 -3 -3 -3 -3 -2 -2
-9 -3 -1 -2 -1 -1 -0 0 -5 -2 -1 -2 -1 -1 -1 -1 -1 -1 0 0 -0 1 0 0 0 0 -2 -1 -2 -3 -3 -3 -2 -2 -5 -3 -4 -3 -2 -3 -3 -2 -2 -2
-10 -5 -1 -1 -1 -1 -0 -0 -3 -4 -2 0 -1 -2 -2 -2 -1 -1 -1 -1 -1 -1 -1 1 0 1 -2 -1 -2 -2 -4 -3 -2 -2 -3 -3 -3 -3 -3 -3 -3 -3 -3 -3
-9 -8 -1 -1 -1 -1 0 0 -0 -5 -5 -1 -2 -3 -4 -3 -2 -2 -1 -1 -1 0 0 -1 0 -0 -2 -2 -2 -1 -3 -2 -1 -2 -4 -4 -3 -3 -3 -2 -3 -3 -3 -4
-8 -10 -1 -1 -1 -3 -0 -0 -3 -5 -6 -6 -3 -2 -2 -3 -2 -2 -1 -1 -1 -0 0 -0 1 -0 -1 -1 -1 -3 -5 -4 -4 -4 -4 -3 -3 -3 -2 -3 -3 -3 -4 -4
-8 -10 -9 -1 -1 -4 -1 -2 -3 -6 -6 -6 -4 -2 -2 -4 -3 -2 -2 -2 -1 -1 -0 -0 -1 -1 -2 -2 0 -3 -4 -5 -4 -4 -4 -3 -3 -3 -3 -3 -3 -4 -6 -11
-4 -3 -5 -1 -1 -2 -3 -2 -5 -6 -6 -7 -6 -5 -4 -5 -3 -3 -3 -2 -2 -2 -2 -1 -3 -2 -2 -1 -2 -3 -3 -3 -3 -3 -3 -3 -3 -3 -3 -5 -7 -10 -14 -15
-2 -1 -1 -1 -1 -3 -4 -4 -4 -5 -6 -5 -4 -6 -4 -4 -3 -2 -3 -3 -2 -2 -3 -3 -3 -3 -1 -2 -3 -3 -3 -3 -3 -3 -3 -3 -4 -4 -6 -9 -12 -14 -14 -13
-1 -2 -3 -4 -5 -5 -5 -5 -5 -5 -5 -6 -4 -3 -4 -4 -3 -3 -2 -3 -3 -5 -3 -3 -3 -2 -4 -4 -4 -4 -4 -4 -4 -3 -4 -4 -5 -7 -9 -11 -13 -14 -13 -13
-3 -4 -5 -4 -6 -5 -5 -4 -4 -2 -4 -5 -5 -3 -4 -4 -4 -3 -2 -4 -5 -5 -4 -3 -3 -1 -3 -4 -5 -5 -4 -4 -5 -5 -5 -5 -6 -9 -10 -13 -14 -12 -14 -21
-2 -3 -5 -5 -5 -5 -8 -9 -5 -5 -5 -4 -5 -6 -3 -3 -3 -3 -3 -4 -4 -3 -4 -4 -2 -3 -4 -5 -5 -4 -4 -5 -5 -5 -7 -7 -9 -12 -14 -13 -12 -17 -23 -20
-2 -4 -5 -5 -5 -6 -7 -7 -8 -7 -6 -5 -4 -6 -4 -5 -4 -3 -5 -4 -3 -5 -6 -4 -3 -3 -3 -5 -5 -4 -4 -5 -6 -8 -9 -11 -12 -13 -12 -14 -22 -23 -18 -17
-3 -4 -5 -6 -7 -6 -5 -6 -7 -6 -7 -7 -4 -4 -4 -4 -5 -4 -6 -5 -5 -7 -5 -4 -5 -3 -7 -5 -5 -5 -5 -6 -7 -9 -10 -12 -12 -12 -15 -22 -23 -18 -17 -16
-2 -2 -3 -4 -6 -4 -4 -3 -6 -7 -7 -5 -3 -4 -4 -5 -5 -4 -6 -5 -7 -6 -6 -5 -3 -7 -7 -5 -5 -5 -6 -7 -7 -8 -12 -12 -11 -16 -23 -21 -18 -17 -16 -17
-2 -2 -2 -2 -3 -4 -4 -5 -8 -8 -6 -5 -4 -6 -6 -5 -6 -5 -6 -7 -7 -8 -5 -9 -8 -10 -6 -5 -5 -6 -6 -6 -8 -12 -11 -11 -17 -23 -21 -17 -17 -16 -16 -17
-1 -2 -2 -2 -3 -4 -3 -5 -7 -7 -6 -6 -5 -6 -6 -7 -7 -6 -6 -6 -7 -5 -10 -13 -12 -10 -8 -6 -6 -6 -7 -8 -11 -11 -11 -17 -23 -22 -17 -17 -16 -16 -16 -16

GFSNW_850_dewp_096.txt.gz
Dewpoint
-2 -1 -2 -2 -3 -4 -4 -1 -1 -0 1 1 1 1 3 2 3 2 0 -1 -1 0 1 3 3 3 3 2 3 4 3 4 5 4 1 2 2 3 2 3 3 3 4 7
-1 -2 -2 -2 -1 -1 -4 -2 -1 -1 1 1 1 2 2 3 1 -0 -1 0 -0 -1 1 2 1 2 1 2 2 3 2 2 2 -0 -2 -1 3 2 1 1 1 4 4 6
-1 -2 -3 -3 -4 -3 -2 -2 -2 -1 -0 2 2 2 3 2 -0 -1 -1 -0 -1 -0 0 0 2 2 1 1 1 1 0 2 1 2 2 1 3 1 1 0 2 3 3 4
-1 -2 -3 -3 -3 -3 -1 -2 -0 1 -1 0 1 1 1 2 2 -0 -0 1 2 0 2 1 1 1 -0 -0 1 1 1 2 0 0 0 0 1 -0 1 2 2 2 3 3
-0 -1 -2 -3 -3 -2 -1 0 -0 1 0 -1 -1 0 2 2 1 1 1 2 1 1 2 2 2 1 0 1 -1 -0 -0 1 1 1 -0 -1 0 -2 -0 2 2 1 2 2
-0 -1 -2 -3 -5 -5 -1 -0 -1 -0 -2 -2 -0 1 1 1 0 0 0 0 1 1 1 1 0 -0 -0 -0 -1 -0 0 1 -0 0 1 1 1 -1 -1 1 1 2 2 1
-0 -0 -1 -3 -4 -6 -1 -2 -2 -2 -2 -0 0 0 0 1 1 1 1 -0 1 0 -0 -0 -0 -0 -0 -1 -1 -1 0 0 0 0 -1 0 -1 -3 -2 -1 1 0 1 1
-0 -1 -0 -2 -3 -4 -4 -3 -2 -2 -2 -1 0 -0 0 0 0 1 1 0 -0 -0 0 -1 -1 -1 -1 -0 -1 -1 -1 0 0 0 0 -2 -2 -2 -1 0 1 -1 0 0
-1 -0 -0 -0 -2 -3 -3 -3 -2 -1 -1 -1 -0 -0 0 0 -0 0 0 -1 -0 0 0 -1 -1 -1 -1 -1 -2 -3 -1 -1 0 1 2 1 -3 -2 -2 -3 -1 -2 -1 -0
-2 -1 -1 -0 -1 -2 -4 -3 -3 -3 -1 -1 -1 -0 -0 0 0 0 0 0 0 1 1 1 -0 -1 -2 -2 -0 -3 -2 -1 1 1 1 0 -3 -2 -3 -1 -8 -1 -1 -1
-5 -2 -1 -2 -1 -1 -1 -5 -5 -3 -3 -3 -2 -0 -0 -0 0 1 0 -0 0 1 1 0 -0 -1 -2 -1 -4 -3 -3 -2 -1 -1 0 -1 -3 -2 -2 -6 -2 -2 -2 -2
-8 -5 -3 -1 -2 -1 -1 -1 -4 -5 -1 -1 -1 -1 -0 -0 -0 -0 0 0 0 1 0 -0 -1 -1 -2 -3 -1 -5 -1 -3 -3 -3 -3 -6 -3 -4 -4 -4 -4 -3 -3 -3
-8 -9 -6 -1 -2 -1 0 0 -1 -5 -2 -2 -2 -2 -1 -1 -1 -1 -0 0 0 1 -0 -0 -0 1 -2 -0 -2 -3 -4 -3 -2 -3 -7 -4 -4 -4 -3 -3 -3 -3 -3 -2
-9 -9 -6 -1 -1 -1 -0 0 -0 -5 -3 -1 -1 -2 -1 -1 -1 -1 -1 -0 -0 -0 -0 -0 -0 1 -2 -1 -2 -2 -4 -3 -2 -2 -4 -4 -4 -3 -3 -2 -3 -3 -2 -2
-10 -8 -8 -1 -1 -1 -1 0 -0 -2 -6 -3 -5 -4 -4 -2 -2 -2 -2 -1 -1 -0 -0 -2 -0 -0 -1 -2 -3 -2 -3 -2 -2 -2 -5 -5 -5 -5 -3 -3 -3 -3 -3 -3
-13 -8 -9 -2 -1 -2 -1 -0 -0 -3 -6 -6 -4 -3 -2 -3 -3 -3 -2 -1 -1 -0 0 -0 0 1 -1 -1 -0 -3 -4 -4 -4 -4 -4 -5 -4 -3 -3 -3 -3 -3 -3 -4
-13 -8 -10 -8 -1 -1 -2 -1 -2 -5 -6 -6 -5 -6 -2 -4 -4 -3 -2 -2 -1 -1 -1 -1 -1 -1 -1 -3 0 -3 -4 -4 -4 -4 -4 -3 -3 -3 -3 -3 -3 -3 -4 -6
-9 -7 -6 -7 -1 -1 -1 -3 -3 -6 -6 -7 -7 -7 -4 -5 -3 -3 -2 -2 -2 -2 -2 -1 -3 -2 -2 -1 -2 -2 -3 -3 -3 -3 -3 -4 -4 -3 -3 -3 -3 -5 -9 -14
-4 -2 -2 -1 -1 -2 -3 -3 -3 -3 -5 -6 -5 -7 -6 -4 -3 -3 -3 -3 -3 -2 -2 -3 -3 -3 -1 -2 -3 -3 -3 -3 -3 -3 -3 -3 -3 -3 -3 -4 -6 -11 -14 -14
-2 -1 -1 -2 -3 -3 -4 -5 -5 -4 -5 -5 -4 -6 -4 -4 -3 -3 -3 -3 -3 -5 -3 -3 -3 -2 -3 -4 -4 -5 -5 -5 -3 -3 -3 -3 -3 -3 -5 -8 -11 -13 -13 -12
-2 -2 -4 -3 -4 -6 -5 -4 -4 -3 -3 -5 -6 -4 -4 -4 -5 -3 -3 -5 -5 -5 -5 -3 -4 -3 -3 -4 -5 -6 -4 -4 -4 -4 -4 -4 -4 -5 -8 -10 -12 -13 -13 -17
-3 -3 -4 -5 -5 -4 -7 -8 -6 -5 -4 -4 -4 -4 -4 -3 -3 -3 -3 -5 -4 -3 -5 -4 -4 -5 -7 -4 -6 -5 -4 -3 -4 -4 -6 -6 -6 -8 -10 -12 -13 -12 -20 -25
-1 -2 -5 -5 -5 -5 -6 -6 -7 -8 -7 -4 -4 -5 -4 -4 -4 -3 -5 -5 -4 -5 -7 -4 -5 -7 -7 -7 -5 -4 -4 -4 -4 -6 -7 -8 -9 -12 -13 -12 -15 -24 -24 -18
-2 -3 -5 -5 -5 -4 -4 -5 -6 -9 -7 -5 -6 -4 -4 -4 -4 -5 -6 -5 -6 -6 -4 -6 -7 -9 -7 -9 -5 -5 -5 -6 -7 -8 -10 -11 -12 -12 -12 -16 -24 -22 -18 -17
-2 -2 -3 -4 -5 -6 -5 -6 -5 -6 -7 -6 -5 -5 -5 -6 -5 -5 -6 -5 -4 -6 -6 -7 -10 -8 -10 -10 -6 -5 -6 -6 -7 -8 -9 -11 -12 -11 -16 -24 -21 -18 -17 -17
-1 -2 -2 -3 -4 -4 -3 -3 -6 -7 -6 -6 -6 -6 -6 -5 -6 -6 -6 -7 -6 -7 -8 -10 -13 -12 -12 -11 -7 -5 -5 -7 -7 -8 -9 -12 -11 -13 -23 -23 -18 -17 -16 -17
-1 -2 -2 -2 -3 -3 -4 -4 -7 -7 -7 -5 -6 -7 -7 -6 -8 -5 -7 -7 -7 -10 -11 -14 -13 -10 -10 -11 -9 -6 -6 -6 -7 -7 -11 -11 -12 -20 -23 -19 -17 -16 -16 -16

GFSNW_850_dewp_102.txt.gz
Dewpoint
-4 -3 -3 -3 -3 -5 -3 -2 -0 -2 -2 0 -0 2 2 2 1 1 1 -1 -1 1 0 2 3 3 2 1 2 4 2 3 4 2 0 -1 2 2 1 3 2 2 4 4
-3 -4 -4 -4 -3 -4 -5 -2 -1 -1 -2 1 -1 0 1 2 1 -0 -0 -0 -1 -1 1 2 2 1 1 1 2 2 2 2 1 -3 -4 -2 1 1 0 1 0 2 3 3
-1 -2 -4 -4 -5 -3 -4 -3 -1 -2 -1 0 0 1 1 1 -0 -0 -0 0 -1 -1 1 -0 1 1 1 2 2 2 1 1 1 -0 -2 -0 1 1 -1 1 -0 2 2 2
-1 -1 -2 -5 -8 -5 -3 -2 -0 -0 -1 -1 -1 0 1 1 2 -0 -0 -0 1 2 1 0 1 0 -0 1 1 2 0 2 0 0 0 -0 1 1 0 1 0 1 -0 2
-2 -1 -2 -3 -7 -7 -3 -2 -1 -1 -2 -1 -1 -0 1 2 1 0 0 1 1 1 1 1 1 1 0 0 -1 0 -0 1 1 0 0 1 1 0 -0 -1 1 1 1 2
-2 -1 -2 -2 -7 -4 -2 -1 -1 -2 -2 -1 -1 0 1 0 1 -0 0 0 0 -0 -0 0 -0 0 -0 -0 0 -1 -0 0 -0 1 -1 -1 1 -1 -0 -0 0 0 2 0
-6 -3 -1 -1 -4 -4 -2 -2 -3 -3 -2 -1 -0 0 -0 -0 0 1 0 0 0 -1 -0 -0 0 1 0 0 -0 -0 -0 -0 -0 1 -1 -3 -5 -4 -3 -1 -1 -0 0 0
-9 -7 -3 -1 -2 -4 -4 -3 -2 -3 -3 -2 -1 0 -0 0 -0 -0 0 -0 -1 -1 -0 -2 -3 -4 -3 -2 -1 -1 -1 -1 0 0 -0 -2 -5 -3 -2 -1 -2 -2 0 -0
-18 -10 -8 -3 -1 -3 -3 -3 -3 -2 -2 -3 -2 -0 -0 -0 -1 -1 -0 -0 0 1 -1 -2 -2 -4 -3 -3 -4 -2 -1 -2 0 0 1 -3 -10 -3 -2 -4 -3 -5 -1 -0
-21 -15 -9 -11 -2 -1 -3 -3 -4 -3 -2 -3 -2 -1 -0 -0 -0 -1 -0 0 0 0 -1 0 -1 -1 -4 -1 -2 -2 -1 -1 1 1 1 0 -4 -3 -3 -2 -10 -3 -1 -1
-14 -20 -10 -10 -6 -2 -2 -2 -2 -5 -3 -5 -4 -3 -2 -0 0 -0 -1 -0 -1 -0 -0 1 -0 -1 -2 -1 -3 -3 -3 -2 -1 -1 1 0 -3 -2 -3 -6 -4 -3 -2 -1
-2 -20 -13 -8 -6 -3 -2 -1 -1 -2 -3 -4 -4 -4 -3 -2 -1 -0 0 -0 -1 0 -0 -0 -1 0 -3 -3 -1 -5 -3 -5 -5 -3 -3 -6 -4 -3 -5 -4 -4 -4 -4 -3
1 -9 -20 -8 -7 -2 -2 -2 -0 0 -1 -3 -3 -3 -3 -3 -2 -1 -1 -0 -0 0 0 -1 -1 1 -1 0 -2 -3 -5 -5 -3 -3 -5 -5 -6 -6 -5 -4 -4 -4 -4 -4
2 -1 -18 -11 -8 -2 -2 -2 -1 -0 -2 -3 -4 -3 -2 -3 -2 -1 -1 -1 -0 -0 0 -0 -1 0 -2 -1 -2 -3 -4 -4 -3 -3 -4 -5 -6 -6 -6 -5 -5 -4 -3 -3
2 2 -12 -13 -9 -4 -1 -1 -2 -0 -1 -4 -5 -3 -3 -4 -2 -2 -1 -1 -1 -1 -1 -2 -0 -1 -2 -2 -3 -2 -3 -3 -2 -2 -5 -5 -5 -5 -5 -5 -5 -4 -3 -3
2 2 -5 -11 -7 -6 -1 -2 -0 -0 -0 -3 -4 -6 -5 -4 -3 -2 -2 -2 -2 -1 -0 -1 -1 -1 -1 -1 -1 -3 -3 -3 -3 -3 -4 -3 -3 -3 -4 -4 -4 -4 -3 -3
3 2 0 -12 -6 -8 -2 -2 -1 -3 -5 -6 -5 -6 -4 -3 -3 -3 -3 -2 -1 -1 -1 -1 -1 -1 -0 -1 1 -3 -3 -3 -3 -3 -3 -3 -3 -3 -3 -4 -4 -3 -3 -3
3 2 0 -11 -6 -5 -6 -4 -1 -2 -5 -6 -8 -6 -7 -4 -4 -3 -3 -2 -2 -1 -1 -2 -2 -2 -2 0 -2 -2 -2 -2 -2 -3 -4 -4 -4 -3 -3 -3 -3 -3 -3 -3
2 2 -3 -6 -2 -2 -2 -2 -2 -2 -3 -6 -6 -7 -6 -4 -3 -3 -2 -3 -3 -3 -3 -3 -2 -2 -1 -2 -2 -2 -3 -2 -3 -4 -6 -6 -4 -3 -3 -3 -3 -3 -3 -4
2 1 -3 -0 -1 -2 -2 -2 -3 -3 -3 -3 -5 -6 -6 -4 -3 -3 -3 -3 -3 -5 -3 -3 -2 -2 -3 -4 -4 -4 -4 -4 -7 -5 -5 -4 -3 -3 -3 -3 -3 -3 -3 -4
1 -0 -2 -3 -3 -3 -4 -4 -3 -3 -3 -4 -4 -6 -5 -5 -4 -4 -3 -5 -5 -4 -4 -4 -4 -3 -4 -6 -7 -6 -7 -8 -5 -4 -4 -4 -4 -3 -3 -3 -3 -3 -5 -9
1 -2 -3 -3 -4 -4 -3 -3 -6 -4 -3 -4 -5 -6 -5 -5 -4 -3 -3 -4 -5 -2 -5 -4 -2 -5 -7 -8 -9 -10 -9 -6 -4 -4 -4 -4 -4 -4 -3 -3 -4 -5 -10 -12
0 -0 -1 -2 -3 -4 -3 -5 -5 -3 -4 -5 -4 -4 -5 -4 -4 -4 -5 -5 -3 -5 -5 -3 -4 -7 -9 -11 -12 -12 -9 -6 -4 -4 -4 -5 -5 -5 -4 -4 -6 -10 -11 -13
0 -1 -2 -3 -5 -5 -5 -5 -5 -7 -6 -5 -4 -4 -5 -5 -4 -5 -5 -4 -6 -4 -2 -4 -5 -8 -10 -13 -13 -12 -10 -8 -6 -5 -5 -6 -7 -6 -6 -8 -10 -12 -13 -19
-1 -1 -1 -2 -5 -6 -6 -6 -8 -8 -6 -5 -5 -5 -5 -5 -5 -5 -5 -4 -3 -4 -5 -5 -9 -12 -14 -14 -14 -13 -12 -10 -8 -6 -6 -8 -9 -9 -9 -11 -12 -13 -21 -27
-1 -2 -2 -4 -5 -6 -5 -5 -6 -6 -5 -7 -7 -4 -4 -4 -5 -5 -5 -4 -3 -4 -6 -9 -12 -14 -13 -14 -13 -12 -12 -10 -8 -6 -6 -8 -10 -10 -11 -12 -12 -17 -26 -25
-2 -2 -1 -3 -5 -5 -6 -6 -5 -5 -6 -3 -4 -5 -5 -6 -6 -5 -5 -4 -3 -8 -11 -11 -13 -14 -14 -13 -11 -10 -10 -11 -10 -9 -8 -7 -8 -10 -11 -12 -11 -14 -25 -23

GFSNW_850_dewp_108.txt.gz
Dewpoint
-2 -2 -6 -8 -5 -4 -4 -2 3 -1 -2 3 2 4 1 0 -1 1 1 -1 -1 0 1 2 2 2 1 0 1 1 2 2 4 2 -0 -1 1 1 1 1 3 3 3 3
-2 -2 -3 -9 -7 -6 -7 -3 -2 -2 -2 5 3 1 1 1 0 -0 0 0 -0 -1 1 1 2 1 1 1 1 2 2 2 4 -2 -1 -1 1 1 1 0 1 3 3 -1
-6 -2 -2 -9 -9 -6 -5 -5 4 -2 -2 -1 -0 0 1 1 -0 0 0 -0 -1 -1 1 0 1 1 1 2 1 2 2 2 2 -1 -4 -3 -0 -1 1 1 3 -0 1 -2
-12 -6 -2 -7 -8 -4 -4 -3 0 -1 3 0 0 0 0 1 1 -0 -0 0 0 -0 0 0 0 -0 -0 1 2 2 2 4 3 2 1 1 1 1 0 2 1 1 -2 -1
-16 -13 -5 -4 -8 -5 -3 -1 -0 -2 -1 -1 -1 -0 1 1 0 0 -0 0 0 -0 0 -1 -1 -1 -0 -1 1 2 1 4 2 3 -1 -0 1 -0 -0 0 -0 -0 -1 -1
-11 -15 -13 -3 -7 -5 -3 -2 -2 -2 -1 -1 -1 -1 0 -0 0 -0 0 -0 -1 -0 -1 -1 -0 -0 -0 -1 -0 0 1 3 3 2 -1 -1 -1 -3 -2 -1 -1 -1 0 -2
-3 -14 -14 -12 -3 -7 -4 -3 -3 -4 -3 -1 -1 0 0 -0 0 0 -0 0 -0 -2 -1 -1 -0 0 0 0 -0 -0 1 1 2 4 1 -2 -7 -5 -4 -2 -3 -2 -2 -2
-2 -5 -16 -13 -11 -3 -5 -5 -3 -3 -5 -3 -2 -1 0 -0 -0 0 0 -0 -1 -1 -1 -1 -3 -5 -4 -2 -0 0 -0 1 3 4 1 -4 -7 -3 -2 -2 -4 -4 -3 -3
-6 -1 -9 -15 -13 -9 -3 -4 -4 -3 -2 -4 -3 -1 -0 -0 -1 -1 -1 -0 -0 -0 -1 -2 -2 -6 -7 -6 -3 -1 -0 -0 2 1 2 -3 -10 -5 -3 -3 -4 -7 -5 -3
-4 -4 -1 -13 -13 -11 -6 -3 -2 -4 -2 -4 -3 -2 -2 -1 -1 -1 -1 -0 0 0 0 -1 -2 -3 -4 -4 -4 1 2 2 3 2 2 0 -4 -4 -3 -3 -8 -6 -2 -2
5 -3 -1 -4 -15 -12 -9 -5 -3 -1 -4 -4 -4 -4 -3 -1 -0 -2 -1 -1 -0 0 1 0 -1 -1 -2 -2 -4 -3 -1 1 1 1 3 3 -4 -2 -4 -6 -7 -6 -4 -4
5 4 -4 1 -9 -14 -8 -5 -3 -2 -1 -2 -2 -2 -4 -4 -3 -3 -2 -1 -1 -0 0 -1 -1 0 -1 -2 -2 -5 -2 -5 -5 -3 -3 -5 -4 -4 -5 -5 -4 -4 -4 -4
5 5 2 -0 0 -11 -10 -5 -3 -2 -1 -2 -3 -3 -2 -2 -2 -2 -2 -1 -1 -0 -0 -0 -0 1 -1 -1 -1 -2 -4 -6 -5 -4 -7 -6 -7 -6 -6 -6 -5 -5 -5 -5
5 5 4 1 2 -2 -11 -8 -4 -2 -1 -1 -2 -3 -4 -3 -3 -3 -2 -1 -1 -0 0 0 0 1 -1 -1 -2 -2 -4 -5 -4 -4 -5 -5 -5 -5 -5 -4 -4 -3 -3 -3
5 5 4 1 2 2 -7 -10 -8 -3 -2 -1 -2 -3 -3 -3 -3 -2 -2 -1 -1 -0 -0 1 1 -0 -1 -1 -2 -0 -3 -3 -2 -3 -5 -5 -6 -6 -5 -3 -3 -4 -3 -3
4 4 4 2 2 2 -5 -7 -2 -1 -1 -1 -0 -4 -5 -5 -4 -3 -2 -1 -1 -1 -0 -0 -1 -1 -1 1 1 -3 -3 -3 -4 -5 -5 -5 -5 -4 -3 -3 -4 -5 -4 -3
4 4 3 2 2 2 -3 -6 -3 -2 -1 -3 -3 -4 -5 -3 -3 -2 -2 -2 -2 -1 -1 -1 -1 -1 -0 0 -0 -6 -5 -5 -4 -4 -4 -3 -3 -3 -3 -3 -5 -6 -8 -3
4 4 3 2 2 2 1 -1 -5 -3 -3 -4 -2 -2 -7 -4 -3 -2 -3 -2 -2 -1 -1 -2 -1 -2 -1 1 -2 -3 -4 -4 -4 -4 -4 -4 -3 -3 -3 -4 -8 -8 -5 -3
3 3 2 2 1 1 -0 -1 -3 -3 -3 -4 -4 -2 -0 -4 -4 -3 -3 -2 -2 -3 -1 -2 -2 -1 0 -2 -4 -4 -5 -4 -4 -4 -4 -3 -3 -4 -7 -6 -6 -4 -3 -3
2 3 2 1 1 1 -1 -2 -2 -2 -1 -1 -3 -5 -4 -4 -3 -3 -2 -3 -2 -0 -3 -3 -1 -1 -3 -3 -4 -5 -5 -5 -4 -3 -4 -6 -8 -5 -5 -4 -4 -3 -3 -3
2 2 1 0 -0 -1 -2 -2 -2 -2 -2 -2 -3 -4 -4 -5 -2 -3 -3 -2 -3 -1 -2 -1 -1 -1 -3 -5 -5 -4 -5 -5 -5 -5 -6 -9 -6 -6 -4 -4 -4 -3 -3 -3
2 1 -0 -1 -1 -1 -2 -2 -3 -2 -2 -3 -3 -4 -5 -5 -5 -3 -3 -2 -3 -1 -4 -2 -1 -3 -6 -7 -7 -7 -8 -9 -10 -11 -11 -6 -6 -5 -4 -4 -4 -3 -3 -3
1 0 -0 -1 -2 -2 -2 -2 -2 -3 -4 -4 -4 -4 -5 -4 -4 -3 -3 -1 -2 -5 -3 -2 -2 -4 -8 -8 -8 -10 -12 -13 -13 -12 -10 -6 -5 -5 -6 -6 -5 -4 -3 -4
0 -1 -2 -1 -1 -2 -2 -3 -3 -6 -5 -4 -5 -4 -4 -4 -3 -4 -2 -4 -5 -2 -2 -2 -2 -7 -9 -9 -9 -11 -13 -14 -13 -12 -11 -8 -6 -5 -5 -6 -6 -4 -4 -4
-1 -2 -1 -1 -3 -4 -5 -5 -6 -6 -5 -5 -4 -5 -5 -4 -3 -4 -4 -3 -2 -3 -2 -1 -7 -10 -10 -10 -10 -14 -14 -14 -14 -13 -12 -11 -8 -6 -6 -6 -6 -5 -5 -8
-1 -1 -1 -2 -2 -4 -5 -5 -5 -6 -4 -5 -5 -4 -3 -3 -3 -3 -3 -3 -3 -2 -2 -9 -10 -11 -11 -10 -14 -15 -15 -14 -13 -12 -12 -11 -11 -9 -7 -7 -8 -8 -9 -9
-2 -2 -3 -2 -3 -2 -3 -3 -5 -6 -4 -2 -2 -2 -1 -5 -3 -4 -5 -3 -2 -7 -11 -10 -11 -12 -12 -11 -12 -15 -15 -14 -13 -11 -11 -12 -10 -9 -9 -9 -9 -9 -9 -11

GFSNW_850_dewp_111.txt.gz
Dewpoint
-3 -3 -9 -8 -7 -6 -4 -0 4 -3 0 4 2 3 -0 -1 -0 0 -0 -1 -1 -0 0 1 0 0 -0 -1 -0 1 0 1 3 1 -1 -0 1 1 0 1 -0 1 1 1
-7 -2 -5 -12 -9 -8 -7 -1 0 -3 -0 5 3 1 1 0 0 -0 -0 -0 -1 -1 -0 0 0 -0 -0 0 0 1 0 2 4 1 -2 -2 1 -1 -0 -0 -0 1 -1 -3
-13 -7 -3 -10 -9 -7 -6 -0 5 -0 0 1 -1 -0 0 1 0 -0 -0 -1 -1 -1 -0 -1 0 -0 0 1 1 1 1 1 2 1 -3 -2 -1 -2 -1 0 3 0 -1 -3
-15 -14 -5 -6 -9 -6 -5 -2 1 -0 3 -0 -1 -0 -1 0 1 -0 -0 -0 -0 -0 -1 -1 -1 -2 -1 1 2 2 2 3 2 1 -0 -1 -1 -1 -1 -0 0 2 -1 -4
-7 -15 -14 -5 -8 -5 -5 0 -0 -1 -1 -1 -1 -1 -0 -1 -0 -0 -1 0 -1 -1 -0 -1 -0 -1 -2 -3 1 2 1 3 1 3 -1 -2 -1 -2 -2 -2 -1 -1 -1 -1
-3 -8 -15 -13 -6 -7 -3 -3 -3 -1 -1 -2 -2 -3 -1 -1 -0 -0 -1 -1 -2 -2 -2 -2 -2 -2 -2 -2 -2 1 1 2 3 2 -2 -1 -0 -3 -3 -3 -3 -3 -1 -4
-4 -2 -9 -14 -10 -5 -6 -5 -4 -3 -5 -2 -3 -1 -1 -1 -1 -1 -1 -1 -1 -1 -2 -1 -1 -1 -1 -2 -2 -2 -1 1 1 3 1 2 -5 -6 -6 -5 -5 -5 -4 -4
-2 -4 -2 -11 -14 -7 -4 -6 -4 -2 -5 -6 -5 -2 -1 -1 -1 -0 -0 -1 -1 -0 -1 -2 -3 -4 -4 -2 -2 -1 -1 -0 2 3 1 -2 -5 -4 -3 -3 -5 -6 -5 -6
5 2 -4 -2 -12 -13 -7 -4 -4 -2 -3 -5 -5 -4 -3 -2 -3 -2 -1 -0 -0 0 -2 -3 -2 -6 -8 -6 -1 -2 -1 -0 1 0 2 -1 -8 -4 -4 -3 -2 -6 -6 -6
5 5 1 -4 -3 -11 -12 -6 -4 -3 -2 -3 -3 -4 -4 -2 -2 -3 -1 -0 1 1 -1 -1 -3 -4 -5 -6 -5 1 1 1 3 3 2 -1 -5 -4 -3 -3 -6 -6 -5 -4
5 5 5 -0 -1 -4 -11 -8 -5 -3 -1 -2 -4 -4 -2 -1 -1 -4 -1 -0 0 1 1 -2 -2 -2 -4 -3 -7 -4 -1 1 2 1 1 2 -5 -3 -4 -7 -6 -6 -4 -4
4 4 4 5 0 -0 -6 -8 -6 -4 -3 -3 -5 -4 -4 -4 -2 -2 -1 -2 -2 -2 0 -1 -2 -1 -2 -4 -4 -6 -4 -6 -5 -3 -1 -5 -4 -7 -5 -4 -4 -5 -5 -5
4 4 4 4 3 1 -0 -7 -8 -4 -2 -3 -2 -3 -4 -2 -3 -4 -3 -2 -2 0 0 -0 -1 1 -3 -1 -2 -3 -5 -6 -4 -6 -7 -7 -7 -6 -6 -6 -6 -5 -4 -4
4 4 4 4 4 2 2 -0 -7 -7 -3 -1 -3 -4 -4 -4 -3 -2 -2 -1 -1 -1 -0 -0 -1 -1 -3 -2 -4 -3 -4 -5 -4 -4 -6 -6 -6 -6 -6 -6 -5 -4 -4 -3
4 4 4 4 4 2 2 1 -3 -6 -4 -1 -2 -4 -3 -3 -3 -3 -2 -2 -0 -0 0 1 1 -1 -1 -2 -1 -0 -3 -3 -2 -3 -6 -6 -6 -6 -6 -4 -4 -3 -3 -4
3 4 4 4 4 2 2 -5 -3 -1 -2 -1 1 -3 -4 -4 -4 -3 -2 -2 -0 -0 -0 -1 -1 -0 -1 1 -0 -4 -5 -4 -4 -5 -5 -5 -5 -4 -4 -4 -3 -3 -4 -6
2 3 4 3 3 3 2 -2 -3 -3 -2 -2 -1 -1 -5 -5 -4 -3 -2 -2 -1 -1 -0 -0 -1 -1 -0 0 -0 -6 -7 -5 -4 -4 -4 -4 -4 -3 -3 -3 -3 -3 -3 -5
-1 2 3 3 2 2 2 2 2 -1 -3 -4 -0 1 -4 -5 -2 -2 -2 -1 -1 -1 -1 -1 -1 -1 -1 1 -2 -4 -5 -5 -5 -4 -3 -4 -4 -4 -3 -3 -3 -4 -7 -7
1 0 3 2 1 1 1 1 0 -1 -2 -2 -2 0 3 -5 -2 -2 -2 -2 -2 -2 -2 -2 -2 -2 0 -1 -3 -4 -4 -3 -4 -4 -4 -4 -4 -3 -3 -5 -6 -6 -6 -4
0 1 2 1 1 1 1 -0 -2 -2 -1 -2 -2 -2 -1 -4 -3 -3 -2 -2 -2 -1 -2 -2 -1 -2 -4 -4 -4 -3 -4 -5 -3 -4 -4 -4 -5 -7 -8 -6 -5 -4 -4 -3
-0 1 1 0 1 0 -1 -1 -1 -1 -2 -2 -2 -2 -2 -4 -2 -2 -3 -1 -2 -0 -1 -1 -1 -0 -3 -5 -5 -5 -4 -5 -5 -5 -5 -5 -6 -9 -7 -6 -4 -4 -3 -3
0 1 0 -0 -0 -1 -1 -0 -2 -2 -1 -2 -2 -3 -3 -3 -4 -3 -3 -1 -2 -0 -3 -2 -1 -1 -5 -6 -7 -7 -6 -4 -4 -5 -5 -6 -10 -7 -6 -6 -4 -5 -4 -3
-1 -0 0 -1 -1 -1 -0 0 -1 -1 -3 -2 -3 -3 -3 -4 -4 -2 -2 -1 -1 -4 -2 -1 -2 -3 -6 -8 -8 -8 -9 -6 -6 -8 -10 -12 -10 -6 -5 -5 -6 -6 -4 -3
-1 -1 -1 -1 0 -1 -0 -1 -1 -2 -3 -3 -3 -3 -3 -3 -3 -3 -1 -3 -4 -1 -1 -1 -0 -4 -8 -9 -8 -9 -12 -12 -13 -13 -12 -12 -10 -8 -6 -5 -5 -6 -5 -4
-2 -2 -0 -0 -1 -1 -2 -2 -5 -6 -4 -4 -2 -2 -2 -2 -1 -2 -1 -2 -2 -2 -1 1 -4 -8 -9 -10 -9 -9 -12 -13 -14 -13 -13 -13 -11 -10 -8 -7 -6 -6 -6 -5
-2 -1 -1 -1 -1 -1 -2 -4 -2 -4 -3 -3 -2 -1 -1 -1 -1 -1 -2 -1 -1 0 -1 -9 -12 -11 -11 -12 -11 -11 -12 -14 -14 -14 -13 -12 -11 -12 -11 -9 -8 -8 -7 -6
-2 -2 -4 -3 -3 -2 -1 -2 -3 -4 -3 -1 -1 -1 -1 -3 -2 -2 -3 -2 -1 -3 -9 -11 -11 -12 -10 -10 -11 -12 -12 -14 -14 -14 -13 -12 -11 -11 -11 -11 -10 -10 -9 -8

GFSNW_850_dewp_117.txt.gz
Dewpoint
-16 -7 -8 -10 -9 -5 -2 1 -0 0 1 1 2 0 -0 -1 -1 0 1 -0 -0 -0 -0 0 0 1 1 -1 -1 2 1 2 2 2 -0 1 2 3 2 2 1 1 1 2
-10 -16 -8 -10 -8 -8 -6 -2 0 -0 1 1 -0 1 1 0 0 0 0 0 -1 -1 -0 1 -0 -0 -0 -0 0 2 1 2 0 1 -1 -1 1 0 2 1 1 2 2 -1
-2 -10 -15 -9 -9 -7 -5 -1 -0 -1 -1 -0 -0 0 1 1 -0 0 -0 -0 -1 -1 -0 -1 0 0 1 -0 0 1 1 2 0 -5 -3 -0 1 0 0 2 1 1 1 -1
-1 -2 -11 -13 -8 -8 -2 -0 -1 1 1 0 -1 -1 -1 1 1 -0 -0 -0 -0 0 1 -1 0 -1 1 1 1 1 1 3 1 1 1 1 2 2 1 1 0 2 -2 -1
3 -1 -2 -12 -12 -7 -6 -1 0 -1 -1 -1 -1 -1 0 -0 -0 -0 -0 0 -1 -1 0 -1 0 -1 -2 -1 2 2 2 2 2 0 1 1 1 0 0 0 0 -0 -1 -1
4 3 -2 -2 -8 -12 -8 -3 -3 -1 -1 -2 -2 -1 -1 -1 -1 -1 -1 -1 -1 -1 -1 -1 -2 -2 -2 -2 1 2 2 2 1 2 0 0 1 -1 -2 -2 -1 -1 1 -2
3 4 3 -1 -3 -7 -9 -7 -3 -2 -2 -3 -2 -2 -2 -1 -1 -0 -1 -1 -1 -1 -1 -3 -4 -2 -2 -2 -1 0 0 1 0 1 0 1 -5 -5 -7 -3 -3 -3 -4 -4
3 3 4 4 -0 -2 -8 -10 -7 -3 -2 -3 -5 -4 -3 -2 -1 -1 -2 -2 -1 -1 -2 -1 -2 -4 -3 -2 -1 -1 -2 -0 0 1 1 -1 -1 -4 -5 -5 -5 -5 -3 -4
3 3 3 3 4 1 -3 -6 -9 -5 -1 -3 -5 -4 -4 -3 -2 -3 -1 -1 -1 -1 -0 -1 -1 -2 -4 -5 -1 -2 -1 -1 -0 1 2 3 -4 -5 -4 -6 -5 -8 -6 -6
3 3 3 3 3 3 2 -1 -5 -6 -2 -5 -3 -4 -4 -3 -2 -2 -1 -1 -1 -0 0 1 -0 -1 -6 -5 -4 1 1 1 2 2 2 1 -3 -4 -4 -4 -6 -6 -6 -6
3 2 3 3 3 3 3 2 1 -1 -5 -4 -5 -4 -4 -2 -2 -3 -2 -2 0 1 1 1 -0 -2 -3 -3 -4 -0 1 1 1 1 1 2 -4 -3 -4 -5 -7 -7 -8 -8
4 3 3 4 3 3 4 3 2 2 -0 -1 -1 -3 -4 -4 -4 -3 -3 -2 -0 0 1 0 -1 -1 -2 -2 -1 -5 -1 -2 0 -0 -0 -4 -4 -5 -6 -6 -8 -7 -7 -7
3 3 3 3 4 4 3 3 2 2 -0 -1 -1 -2 -4 -5 -5 -4 -2 -2 -2 -1 0 1 1 1 -1 1 -0 -2 -4 -5 -3 -4 -4 -4 -4 -5 -5 -5 -5 -6 -5 -5
3 2 2 3 3 4 4 3 3 2 -0 -2 -2 -4 -3 -3 -4 -4 -3 -2 -2 -1 -0 -0 0 1 -2 -1 -2 -2 -3 -3 -4 -4 -6 -6 -6 -7 -7 -6 -6 -7 -7 -5
2 2 2 2 3 3 3 3 2 -1 -2 -2 -3 -1 -1 -1 -2 -2 -3 -2 -2 -2 -1 -1 1 0 -1 -1 -1 -2 -3 -3 -1 -2 -5 -6 -6 -6 -6 -6 -6 -6 -6 -6
2 2 -1 1 3 3 3 2 -2 -2 -1 0 -1 -0 -1 -2 -3 -4 -3 -3 -2 -1 -1 -1 -1 -0 -1 -0 0 -2 -5 -5 -5 -4 -5 -5 -6 -6 -5 -5 -5 -5 -6 -5
-1 -2 -2 0 1 3 3 2 -0 1 2 -1 -1 -2 -2 -5 -4 -3 -2 -2 -1 -1 -1 -0 -1 -0 -1 -0 0 -5 -5 -5 -5 -4 -4 -3 -4 -4 -4 -4 -4 -4 -4 -4
-4 -3 -3 -3 -2 -0 2 2 2 2 1 0 -1 -1 -2 -4 -3 -2 -2 -2 -1 -1 -0 -1 -1 -1 -1 0 -2 -3 -3 -3 -4 -5 -5 -4 -4 -5 -5 -4 -4 -4 -4 -4
-7 -6 -7 -7 -3 0 1 1 1 1 1 -1 -2 -1 1 -3 -2 -2 -2 -2 -2 -2 -1 -1 -1 -1 -0 -2 -3 -3 -4 -4 -4 -5 -4 -4 -4 -5 -4 -3 -3 -4 -5 -6
-8 -6 -5 -1 0 1 1 0 -1 -1 -1 -2 -2 -2 -2 -3 -3 -3 -2 -3 -2 -2 -2 -3 -1 -1 -4 -4 -5 -5 -5 -6 -5 -4 -4 -4 -3 -4 -5 -4 -5 -7 -9 -9
-5 -2 -1 0 0 -0 0 -1 -1 -2 -2 -2 -2 -2 -2 -3 -2 -1 -2 -2 -3 -2 -2 -2 -1 -1 -4 -5 -5 -7 -8 -7 -7 -7 -5 -5 -4 -4 -5 -6 -6 -9 -8 -7
-1 -0 -1 -1 -0 -1 -1 -1 -1 -2 -2 -2 -2 -2 -2 -2 -2 -1 -1 -2 -2 -1 -2 -2 -2 -4 -6 -6 -8 -9 -9 -9 -11 -7 -5 -4 -4 -4 -4 -5 -5 -9 -7 -6
-1 -3 -3 -1 -1 -1 -1 -3 -2 -2 -3 -2 -2 -3 -2 -3 -3 -2 -1 -1 -1 -4 -3 -3 -4 -5 -8 -7 -7 -9 -9 -9 -10 -12 -10 -5 -5 -4 -4 -4 -5 -9 -6 -5
-4 -2 -3 -2 -3 -2 -3 -3 -4 -3 -2 -3 -3 -3 -3 -4 -3 -3 -1 -2 -2 -2 -3 -4 -5 -7 -7 -7 -6 -9 -11 -8 -8 -6 -7 -8 -10 -12 -13 -12 -11 -10 -8 -7
-3 -3 -2 -3 -3 -3 -2 -2 -2 -3 -3 -3 -2 -2 -2 -4 -4 -2 -3 -2 -4 -5 -5 -5 -7 -4 -5 -7 -8 -7 -9 -8 -8 -8 -6 -6 -7 -8 -7 -9 -12 -11 -10 -9
-3 -2 -4 -4 -2 -3 -2 -1 -2 -2 -4 -3 -2 -3 -2 -2 -2 -2 -3 -4 -5 -5 -6 -6 -5 -6 -7 -7 -8 -7 -8 -7 -6 -8 -8 -6 -8 -7 -7 -7 -9 -13 -11 -11
-2 -3 -3 -4 -3 -3 -3 -3 -3 -2 -3 -3 -2 -1 -3 -4 -2 -2 -5 -5 -5 -6 -7 -6 -7 -8 -10 -10 -8 -8 -7 -6 -5 -6 -6 -7 -7 -6 -7 -7 -8 -9 -11 -11